Regional Weather Roundup
Issued by NWS Portland, ME

Current Version | Previous Version | Text Only | Print | Product List | Glossary On
Versions: 1 2 3 4 5 6 7 8 9 10 11 12 13 14 15 16 17 18 19 20 21 22 23 24 25 26 27 28 29 30 31 32 33 34 35 36 37 38 39 40 41 42 43 44 45 46 47 48 49 50
000 ASUS41 KGYX 021710 RWRGYX WEATHER ROUNDUP FOR MAINE AND NEW HAMPSHIRE NATIONAL WEATHER SERVICE GRAY ME 1200 PM EST TUE MAR 02 2021 MEZ002-005-006-010-012-015-018-020-021-024-026-027-029-021800- MAINE CITY SKY/WX TMP DP RH WIND PRES REMARKS PORTLAND MOSUNNY 18 -3 39 W24G36 29.75R WCI 0 SANFORD SUNNY 15 -3 44 W23G40 29.79F WCI -3 BAR HARBOR SUNNY 14 -4 44 W15G30 29.53S WCI -1 WISCASSET SUNNY 16 -6 37 W17G31 29.70R WCI 0 ROCKLAND SUNNY 15 -4 42 MISG 29.62R FRYEBURG SUNNY 15 -10 32 W15G29 29.75S WCI 0 LEWISTONAUBURN N/A 15 -6 39 NW17G35 29.72 WCI -1 AUGUSTA SUNNY 13 -7 40 W22G35 29.67R WCI -6 WATERVILLE SUNNY 13 -4 46 W22G32 29.62S WCI -6 BANGOR PTSUNNY 11 -8 42 NW28G43 29.56R WCI -10 GREENVILLE N/A 3 -12 49 NW32G51 29.44R WCI -22 MILLINOCKET N/A 5 32 100 MISG 29.50 HOULTON CLOUDY 6 -5 60 NW23G38 29.35S WCI -15 PRESQUE ISLE CLOUDY 7 0 72 NW24G31 29.36S HAZE WCI -15 FRENCHVILLE HVY SNOW -1 -9 68 NW33G46 29.30S VSB 1/4 WCI -28 CARIBOU LGT SNOW 3 -6 66 W17G37 29.33S VSB 1 WCI -17 $$ NHZ002-005-008-009-011-012-014-021800- NEW HAMPSHIRE CITY SKY/WX TMP DP RH WIND PRES REMARKS PORTSMOUTH SUNNY 19 -9 28 W23G52 29.81S WCI 1 ROCHESTER SUNNY 16 -6 37 NW29G43 29.80R WCI -4 NASHUA SUNNY 20 -5 33 W30G52 29.91F WCI 1 MANCHESTER SUNNY 19 -9 28 NW24G39 29.88F WCI 2 CONCORD SUNNY 17 -6 35 NW37G47 29.88F WCI -4 LACONIA SUNNY 16 -6 37 W25G40 29.84F WCI -3 PLYMOUTH FAIR 13 -8 37 W20G32 29.93F WCI -4 BERLIN PTSUNNY 8 -8 48 W14G33 29.80F WCI -8 WHITEFIELD CLOUDY 7 -9 48 W18G32 29.89F WCI -12 JAFFREY SUNNY 16 -8 34 MISG 29.89F KEENE SUNNY 16 -6 37 NW15G23 29.99F WCI 1 LEBANON SUNNY 16 -6 37 NW18G29 29.98F WCI 0 MT WASHINGTON BLWGSNOW -18 -18 100 W76G101 N/A VSB 1/8 WCI -63 $$ VTZ005-007-008-021800- VERMONT CITY SKY/WX TMP DP RH WIND PRES REMARKS ST JOHNSBURY N/A 10 -10 40 MISG 29.96S MONTPELIER SUNNY 8 -7 50 NW20G33 29.99S WCI -11 BURLINGTON MOSUNNY 13 -8 39 W10G23 30.09F WCI 0 $$ MAZ007-012-024-CTZ003-RIZ002-NYZ038-NYZ072-021800- SOUTHERN NEW ENGLAND AND NY CITY SKY/WX TMP DP RH WIND PRES REMARKS WORCESTER SUNNY 19 -6 33 NW33G44 29.85F WCI -1 NANTUCKET SUNNY 25 3 38 W21G30 29.91F WCI 11 PROVIDENCE MOSUNNY 25 -7 24 NW26G44 29.95F WCI 9 HARTFORD SUNNY 23 -4 30 NW30G38 30.03F WCI 5 ALBANY MOSUNNY 19 -1 41 W21G32 30.16F WCI 3 NEW YORK CITY SUNNY 29 3 33 NW22G29 30.18S WCI 15 $$ ANZ081-ANZ082-ANZ150-NHZ014-MEZ023>029-021800- COASTAL MARINE OBSERVATIONS STATION/POSITION TIME TEMP WIND PRES WAVE AIR SEA DIR/SP/G HT/PER (UTC) (F) (DEG/KT/KT) (MB) (FT/S) $$ .............KEY.............. WCI - WIND CHILL TC - TEMPERATURE IN CELSIUS VSB - VISIBILITY IN MILES HX - HEAT INDEX FAIR- INDICATES FEW OR NO CLOUDS BELOW 12,000 FT, WITH NO SIGNIFICANT WEATHER AND/OR OBSTRUCTIONS TO VISIBILITY.

USA.gov is the U.S. government's official web portal to all federal, state and local government web resources and services.